When you browse on this site, cookies collect data to enhance your experience and personalize the content and advertising you see.
Visit our Privacy Policy to learn more. By continuing to use the site, you agree to this use of cookies and data.
  • In Hungary
  • List of Countries
  • For 7 days
  • Water Temperature
  • Satellite Maps
  • Weather Map
  • News
  • Weather Widgets
  • user-avatar
    Login

    Hourly Weather Chinandega

    Today, 15 December, Saturday

    Time Temperature Precipitation Wind Pressure Humidity
    00:00 +26°C° 0 mm 1 mps 757 mmHg 74%
    01:00 +26°C° 0.1 mm 1 mps 757 mmHg 75%
    02:00 +26°C° 0.1 mm 2 mps 757 mmHg 76%
    03:00 +26°C° 0.1 mm 2 mps 756 mmHg 76%
    04:00 +26°C° 0.1 mm 2 mps 757 mmHg 77%
    05:00 +25°C° 0.1 mm 2 mps 757 mmHg 77%
    06:00 +25°C° 0.1 mm 3 mps 757 mmHg 78%
    07:00 +27°C° 0 mm 3 mps 757 mmHg 69%
    08:00 +30°C° 0 mm 3 mps 757 mmHg 61%
    09:00 +33°C° 0 mm 3 mps 758 mmHg 52%
    10:00 +35°C° 0 mm 3 mps 757 mmHg 46%
    11:00 +36°C° 0 mm 3 mps 756 mmHg 41%
    12:00 +38°C° 0 mm 3 mps 756 mmHg 35%
    13:00 +38°C° 0 mm 3 mps 755 mmHg 36%
    14:00 +38°C° 0 mm 3 mps 754 mmHg 36%
    15:00 +38°C° 0 mm 3 mps 754 mmHg 36%
    16:00 +37°C° 0 mm 3 mps 754 mmHg 39%
    17:00 +35°C° 0 mm 3 mps 754 mmHg 43%
    18:00 +34°C° 0 mm 3 mps 755 mmHg 46%
    19:00 +33°C° 0 mm 3 mps 756 mmHg 48%
    20:00 +32°C° 0 mm 4 mps 756 mmHg 51%
    21:00 +32°C° 0 mm 4 mps 757 mmHg 53%
    22:00 +30°C° 0 mm 4 mps 757 mmHg 56%
    23:00 +29°C° 0 mm 4 mps 757 mmHg 59%

    Tomorrow, 16 December, Sunday

    Time Temperature Precipitation Wind Pressure Humidity
    00:00 +28°C° 0 mm 4 mps 757 mmHg 61%
    01:00 +28°C° 0 mm 4 mps 757 mmHg 63%
    02:00 +27°C° 0 mm 4 mps 757 mmHg 64%
    03:00 +27°C° 0 mm 4 mps 756 mmHg 65%
    04:00 +26°C° 0 mm 4 mps 757 mmHg 66%
    05:00 +26°C° 0 mm 4 mps 757 mmHg 67%
    06:00 +26°C° 0 mm 4 mps 757 mmHg 69%
    07:00 +28°C° 0 mm 4 mps 757 mmHg 61%
    08:00 +30°C° 0 mm 5 mps 758 mmHg 53%
    09:00 +34°C° 0 mm 6 mps 758 mmHg 45%
    10:00 +35°C° 0 mm 6 mps 757 mmHg 41%
    11:00 +37°C° 0 mm 5 mps 757 mmHg 37%
    12:00 +40°C° 0 mm 5 mps 756 mmHg 32%
    13:00 +39°C° 0 mm 5 mps 756 mmHg 33%
    14:00 +39°C° 0 mm 5 mps 755 mmHg 34%
    15:00 +39°C° 0 mm 5 mps 754 mmHg 35%
    16:00 +36°C° 0 mm 5 mps 755 mmHg 39%
    17:00 +35°C° 0 mm 5 mps 755 mmHg 43%
    18:00 +33°C° 0 mm 5 mps 756 mmHg 47%
    19:00 +32°C° 0 mm 4 mps 756 mmHg 51%
    20:00 +30°C° 0 mm 4 mps 757 mmHg 55%
    21:00 +28°C° 0 mm 4 mps 757 mmHg 59%
    22:00 +28°C° 0 mm 4 mps 757 mmHg 61%
    23:00 +27°C° 0 mm 4 mps 757 mmHg 62%

    Day after tomorrow, 17 December, Monday

    Time Temperature Precipitation Wind Pressure Humidity
    00:00 +27°C° 0 mm 4 mps 757 mmHg 64%
    01:00 +26°C° 0 mm 4 mps 757 mmHg 65%
    02:00 +26°C° 0 mm 4 mps 756 mmHg 66%
    03:00 +25°C° 0 mm 4 mps 756 mmHg 67%
    04:00 +25°C° 0 mm 3 mps 756 mmHg 67%
    05:00 +25°C° 0 mm 3 mps 757 mmHg 67%
    06:00 +25°C° 0 mm 3 mps 757 mmHg 68%
    07:00 +27°C° 0 mm 4 mps 757 mmHg 61%
    08:00 +29°C° 0 mm 4 mps 758 mmHg 53%
    09:00 +32°C° 0 mm 4 mps 758 mmHg 46%
    10:00 +34°C° 0 mm 4 mps 758 mmHg 42%
    11:00 +36°C° 0 mm 4 mps 757 mmHg 38%
    12:00 +37°C° 0 mm 4 mps 756 mmHg 34%
    13:00 +38°C° 0 mm 4 mps 755 mmHg 33%
    14:00 +38°C° 0 mm 4 mps 755 mmHg 33%
    15:00 +38°C° 0 mm 4 mps 754 mmHg 32%
    16:00 +36°C° 0 mm 4 mps 754 mmHg 38%
    17:00 +34°C° 0 mm 3 mps 755 mmHg 43%
    18:00 +31°C° 0 mm 3 mps 755 mmHg 48%
    19:00 +30°C° 0 mm 3 mps 756 mmHg 52%
    20:00 +29°C° 0 mm 3 mps 757 mmHg 55%
    21:00 +28°C° 0 mm 3 mps 757 mmHg 59%
    22:00 +27°C° 0 mm 3 mps 757 mmHg 62%
    23:00 +27°C° 0 mm 3 mps 757 mmHg 66%

    18 December, Tuesday

    Time Temperature Precipitation Wind Pressure Humidity
    00:00 +26°C° 0 mm 4 mps 757 mmHg 69%
    01:00 +25°C° 0 mm 4 mps 757 mmHg 72%
    02:00 +25°C° 0 mm 4 mps 756 mmHg 74%
    03:00 +24°C° 0 mm 3 mps 756 mmHg 77%
    04:00 +22°C° 0 mm 3 mps 756 mmHg 78%
    05:00 +22°C° 0 mm 4 mps 756 mmHg 79%
    06:00 +22°C° 0 mm 4 mps 756 mmHg 81%
    07:00 +25°C° 0 mm 4 mps 757 mmHg 69%
    08:00 +28°C° 0 mm 4 mps 757 mmHg 57%
    09:00 +30°C° 0 mm 4 mps 758 mmHg 46%
    10:00 +33°C° 0 mm 4 mps 757 mmHg 41%
    11:00 +35°C° 0 mm 3 mps 756 mmHg 36%
    12:00 +37°C° 0 mm 3 mps 755 mmHg 31%
    13:00 +38°C° 0 mm 3 mps 755 mmHg 32%
    14:00 +38°C° 0 mm 3 mps 754 mmHg 33%
    15:00 +38°C° 0 mm 4 mps 753 mmHg 34%
    16:00 +36°C° 0 mm 3 mps 754 mmHg 40%
    17:00 +33°C° 0 mm 3 mps 754 mmHg 47%
    18:00 +30°C° 0 mm 2 mps 755 mmHg 54%
    19:00 +29°C° 0 mm 2 mps 755 mmHg 58%
    20:00 +28°C° 0 mm 2 mps 756 mmHg 61%
    21:00 +27°C° 0 mm 2 mps 757 mmHg 65%
    22:00 +27°C° 0 mm 2 mps 757 mmHg 66%
    23:00 +27°C° 0 mm 2 mps 756 mmHg 66%

    19 December, Wednesday

    Time Temperature Precipitation Wind Pressure Humidity
    00:00 +27°C° 0 mm 2 mps 756 mmHg 67%
    01:00 +26°C° 0 mm 2 mps 756 mmHg 69%
    02:00 +26°C° 0 mm 2 mps 755 mmHg 70%
    03:00 +25°C° 0 mm 2 mps 755 mmHg 71%
    04:00 +25°C° 0 mm 2 mps 755 mmHg 73%
    05:00 +25°C° 0 mm 2 mps 756 mmHg 74%
    06:00 +25°C° 0 mm 3 mps 756 mmHg 75%
    07:00 +27°C° 0 mm 3 mps 756 mmHg 67%
    08:00 +29°C° 0 mm 3 mps 757 mmHg 58%
    09:00 +31°C° 0 mm 3 mps 757 mmHg 50%
    10:00 +34°C° 0 mm 3 mps 756 mmHg 46%
    11:00 +36°C° 0 mm 2 mps 756 mmHg 41%
    12:00 +37°C° 0 mm 2 mps 755 mmHg 37%
    13:00 +37°C° 0 mm 3 mps 754 mmHg 39%
    14:00 +36°C° 0 mm 3 mps 753 mmHg 40%
    15:00 +36°C° 0 mm 4 mps 752 mmHg 42%
    16:00 +34°C° 0 mm 4 mps 753 mmHg 50%
    17:00 +31°C° 0 mm 3 mps 753 mmHg 58%
    18:00 +29°C° 0 mm 3 mps 754 mmHg 66%
    19:00 +28°C° 0 mm 2 mps 754 mmHg 70%
    20:00 +27°C° 0 mm 2 mps 755 mmHg 74%
    21:00 +27°C° 0 mm 1 mps 756 mmHg 77%
    22:00 +26°C° 0.1 mm 1 mps 755 mmHg 78%
    23:00 +26°C° 0.1 mm 1 mps 755 mmHg 79%

    20 December, Thursday

    Time Temperature Precipitation Wind Pressure Humidity
    00:00 +26°C° 0.1 mm 1 mps 755 mmHg 80%
    01:00 +26°C° 0.1 mm 1 mps 755 mmHg 81%
    02:00 +25°C° 0.1 mm 1 mps 755 mmHg 81%
    03:00 +25°C° 0.1 mm 1 mps 754 mmHg 82%
    04:00 +25°C° 0 mm 1 mps 755 mmHg 82%
    05:00 +25°C° 0 mm 1 mps 755 mmHg 82%
    06:00 +25°C° 0 mm 1 mps 755 mmHg 82%
    07:00 +27°C° 0 mm 1 mps 756 mmHg 73%
    08:00 +30°C° 0 mm 1 mps 756 mmHg 63%
    09:00 +32°C° 0 mm 1 mps 756 mmHg 53%
    10:00 +34°C° 0 mm 1 mps 756 mmHg 48%
    11:00 +35°C° 0 mm 1 mps 755 mmHg 43%
    12:00 +37°C° 0 mm 1 mps 754 mmHg 37%
    13:00 +37°C° 0 mm 2 mps 754 mmHg 39%
    14:00 +37°C° 0 mm 3 mps 753 mmHg 41%
    15:00 +36°C° 0 mm 4 mps 752 mmHg 42%
    16:00 +34°C° 0 mm 3 mps 753 mmHg 51%
    17:00 +31°C° 0 mm 3 mps 753 mmHg 61%
    18:00 +29°C° 0 mm 3 mps 754 mmHg 70%
    19:00 +28°C° 0 mm 2 mps 754 mmHg 74%
    20:00 +27°C° 0 mm 2 mps 755 mmHg 78%
    21:00 +27°C° 0 mm 1 mps 755 mmHg 82%
    22:00 +26°C° 0 mm 1 mps 755 mmHg 83%
    23:00 +26°C° 0 mm 1 mps 755 mmHg 84%
    Show more